• Processing (Info)

  • MPEC 2019-U186 : 2010 VH1

    The following Minor Planet Electronic Circular may be linked-to from your own Web pages, but must not otherwise be redistributed electronically.

    A form allowing access to any MPEC is at the bottom of this page.


    Read MPEC 2019-U185 Read MPEC 2019-U187


    M.P.E.C. 2019-U186                             Issued 2019 October 26, 13:05 UT
    
         The Minor Planet Electronic Circulars contain information on unusual
             minor planets and routine data on comets.  They are published
        on behalf of Division F of the International Astronomical Union by the
              Minor Planet Center, Smithsonian Astrophysical Observatory,
                              Cambridge, MA 02138, U.S.A.
    
                 Prepared using the Tamkin Foundation Computer Network
    
                                  MPC@CFA.HARVARD.EDU
                URL https://www.minorplanetcenter.net/    ISSN 1523-6714
    
                                    2010 VH1                                 
    
    
                               Revision to MPEC 2010-V43                            
    
    Additional Observations:
         K10V01H  C2019 10 23.36113 02 51 02.27 +25 08 24.6          21.3 GVEU186G96
         K10V01H  C2019 10 23.36628 02 51 01.47 +25 08 02.5          21.0 GVEU186G96
         K10V01H  C2019 10 23.37144 02 51 00.65 +25 07 40.4          21.1 GVEU186G96
         K10V01H  C2019 10 23.53439602 50 35.734+24 56 03.77         21.2 GVEU186F51
         K10V01H  C2019 10 23.54599402 50 33.919+24 55 14.08         20.7 GVEU186F51
         K10V01H  C2019 10 24.17489502 49 00.12 +24 09 39.0          21.0 GVEU186H01
         K10V01H  C2019 10 24.17801102 48 59.64 +24 09 25.3          21.1 GVEU186H01
         K10V01H  C2019 10 24.19245302 48 57.38 +24 08 22.8          21.0 GVEU186H01
         K10V01H  C2019 10 24.19949902 48 56.27 +24 07 52.1          20.9 GVEU186H01
         K10V01H  C2019 10 24.43025 02 48 19.64 +23 51 01.5          20.5 GVEU186I52
         K10V01H  C2019 10 24.43832 02 48 18.31 +23 50 25.2          21.2 GVEU186I52
         K10V01H  C2019 10 24.44451 02 48 17.36 +23 49 57.9          21.7 GVEU186I52
         K10V01H  C2019 10 24.44618 02 48 17.16 +23 49 51.1          21.2 GVEU186I52
         K10V01H  C2019 10 24.54612502 48 01.985+23 42 34.83         21.15wUEU186F51
         K10V01H  C2019 10 24.55842202 48 00.015+23 41 40.12         21.22wUEU186F51
         K10V01H  C2019 10 24.58311302 47 56.097+23 39 50.99         21.27wUEU186F51
         K10V01H  C2019 10 25.24250 02 46 16.83 +22 50 54.4                VEU186I52
         K10V01H  C2019 10 25.24417 02 46 16.50 +22 50 48.3          21.2 GVEU186I52
         K10V01H  C2019 10 25.24750 02 46 15.96 +22 50 33.2          21.9 GVEU186I52
         K10V01H  C2019 10 26.29281 02 43 34.85 +21 31 40.9          20.6 GVEU186I52
         K10V01H  C2019 10 26.29518 02 43 34.44 +21 31 30.7          21.0 GVEU186I52
         K10V01H  C2019 10 26.29754 02 43 34.10 +21 31 20.0          20.8 GVEU186I52
         K10V01H  C2019 10 26.29990 02 43 33.70 +21 31 08.9          20.7 GVEU186I52
    
    Observer details:
    F51 Pan-STARRS 1, Haleakala.  Observers J. Bulger, K. Chambers, T. Lowe, E. 
       Magnier, A. Schultz, M. Willman.  Measurers S. Chastel, M. Huber, Y. 
       Ramanjooloo, R. Wainscoat, R. Weryk, K. Chambers, T. de Boer, L. Denneau, J. 
       Fairlamb, H. Flewelling, C.-C. Lin, E. Magnier.  1.8-m Ritchey-Chretien + 
       CCD.
    G96 Mt. Lemmon Survey.  Observer G. J. Leonard.  Measurers E. J. Christensen, 
       G. A. Farneth, D. C. Fuls, A. R. Gibbs, A. D. Grauer, H. Groeller, R. A. 
       Kowalski, S. M. Larson, G. J. Leonard, T. A. Pruyne, D. Rankin, R. L. Seaman,
        F. C. Shelly, K. W. Wierzchos.  1.5-m reflector + 10K CCD.
    H01 Magdalena Ridge Observatory, Socorro.  Observers W. H. Ryan, E. V. Ryan.  
        Measurer W. H. Ryan.  2.4-m f/8.9 Ritchey-Chretien + CCD.
    I52 Steward Observatory, Mt. Lemmon Station.  Observers R. A. Kowalski, K. W. 
       Wierzchos, D. C. Fuls.  Measurers E. J. Christensen, G. A. Farneth, D. C. 
       Fuls, A. R. Gibbs, A. D. Grauer, H. Groeller, R. A. Kowalski, S. M. Larson, 
       G. J. Leonard, T. A. Pruyne, D. Rankin, R. L. Seaman, F. C. Shelly, K. W. 
       Wierzchos.  1.0-m reflector + CCD.
    
    First and last observations above in comparison with prediction:
    Residuals in seconds of arc (or two decimals in degrees), reference and Delta-T
    191023 G96 0.93- 0.45-    191026 I52 0.97- 0.44-    MPO477633   -0.63 days
    
    Orbital elements:
    2010 VH1                                                 Earth MOID = 0.0869 AU
    Epoch 2019 Apr. 27.0 TT = JDT 2458600.5                 Veres
    M  51.56218              (2000.0)            P               Q
    n   0.76891495     Peri.  349.76860     -0.85547338     +0.31494595
    a   1.1800050      Node   218.19341     -0.41562530     -0.89109262
    e   0.2226102      Incl.   41.66786     -0.30890276     +0.32674606
    P   1.28           H   21.3           G   0.15           U   3
    Residuals in seconds of arc
    101031 F51  0.4+  0.1+    101106 H21  0.2+  1.1+    191023 G96  0.0   0.0
    101031 F51  0.2-  0.3-    101107 H21  0.1+  0.1+    191023 F51  0.1+  0.1-
    101101 F51  0.3+  0.0     101107 H21  0.1+  0.1-    191023 F51  0.4+  0.4+
    101101 F51  0.2+  0.2+    101109 H21  0.6-  0.4-    191024 H01  0.1-  0.1+
    101101 F51  0.1+  0.1-    101109 H21  0.8-  0.4-    191024 H01  0.0   0.1-
    101103 G96  0.7+  0.6-    101109 H21  0.7-  0.2+    191024 H01  0.0   0.1+
    101103 G96  0.1+  0.3-    101109 H21  0.2-  0.1+    191024 H01  0.0   0.0
    101103 G96  0.2-  0.4-    101109 H21  0.1-  0.4+    191024 I52  0.2-  0.3+
    101103 G96  0.8-  0.0     101110 H21  0.1-  0.0     191024 I52  0.9-  0.3-
    101103 H01  0.4-  0.3+    101110 H21  0.2-  0.2+    191024 I52  0.5-  0.2-
    101103 H01  0.3-  0.3+    101110 H21  0.1+  0.4-    191024 I52  0.4+  0.4+
    101103 H01  0.3-  0.1-    101110 291  0.5+  0.4-    191024 F51  0.0   0.1-
    101103 H01  0.3-  0.0     101110 291  0.4-  0.3+    191024 F51  0.1-  0.2-
    101104 H01  0.2-  0.5+    101110 291  0.7+  0.3-    191024 F51  0.0   0.3+
    101104 H01  0.0   0.0     101114 291  0.3+  0.0     191025 I52  0.8+  1.5-
    101104 H01  0.3-  0.2-    101114 291  0.4+  1.2+    191025 I52  0.0   0.1-
    101104 H01  0.3-  0.2-    101114 291  0.4-  1.2+    191025 I52  0.1-  0.4-
    101105 291  0.1-  0.3-    101128 H21  0.4+  0.6-    191026 I52  0.2-  0.6-
    101105 291  1.4-  0.5-    101128 H21  0.4+  0.8-    191026 I52  0.6-  0.0
    101105 291  0.0   0.1+    101128 H21  0.8+  0.1-    191026 I52  0.0   0.1+
    101106 H21  0.1-  0.3+    191023 G96  0.1-  0.1-    191026 I52  0.3-  0.2-
    101106 H21  0.1+  1.0+    191023 G96  0.1+  0.1-
    
    Ephemeris:
    2010 VH1                 a,e,i = 1.18, 0.22, 42                  q = 0.9173
    Date    TT    R. A. (2000) Decl.     Delta      r    Elong.  Phase     V
    2019 09 26    03 37 07.6 +45 35 43   0.6804  1.4391   116.2    38.7    22.8
    ...
    2019 10 11    03 18 35.5 +37 15 21   0.5433  1.4426   136.7    28.4    22.0
    ...
    2019 10 19    03 01 40.6 +30 01 24   0.4871  1.4416   151.0    19.6    21.5
    ...
    2019 10 25    02 46 53.4 +23 09 07   0.4582  1.4395   163.3    11.4    21.1
    2019 10 26    02 44 19.9 +21 54 04   0.4547  1.4391   165.5    10.0    21.0
    2019 10 27    02 41 45.5 +20 37 33   0.4517  1.4386   167.7     8.5    20.9
    ...
    2019 11 02    02 26 22.8 +12 37 23   0.4427  1.4350   178.1     1.3    20.5
    ...
    2019 11 10    02 07 27.3 +02 00 29   0.4559  1.4284   160.6    13.3    21.1
    ...
    2019 11 25    01 42 14.1 -13 16 50   0.5439  1.4108   132.1    31.3    22.1
    
    A. U. Tomatic                (C) Copyright 2019 MPC           M.P.E.C. 2019-U186
    


    Read MPEC 2019-U185 Read MPEC 2019-U187


    MPEC number:

    Enter an MPEC number in one of the following forms:

    • 1997-B01 (the full form)
    • J97B01 (the packed version of the full form)
    • B01 (the abbreviated form)